Regional Weather Roundup
Issued by NWS

Home | Current Version | Previous Version | Graphics & Text | Print | Product List | Glossary On
Versions: 1 2 3 4 5 6 7 8 9 10 11 12 13 14 15 16 17 18 19 20 21 22 23 24 25 26 27 28 29 30 31 32 33 34 35 36 37 38 39 40 41 42 43 44 45 46 47 48 49 50
000
ASUS43 KLMK 230710
RWRKY
KENTUCKY REGIONAL WEATHER ROUNDUP
NATIONAL WEATHER SERVICE LOUISVILLE KY
300 AM EDT MON APR 23 2018

NOTE "FAIR" INDICATES FEW OR NO CLOUDS BELOW 12,000 FEET
WITH NO SIGNIFICANT WEATHER AND/OR OBSTRUCTIONS TO VISIBILITY.

KYZ001>023-026-027-061>063-070>075-230800-
WESTERN AND SOUTH CENTRAL KENTUCKY

CITY           SKY/WX    TMP DP  RH WIND       PRES   REMARKS
PADUCAH        HVY RAIN  57  55  93 NE17G28   29.81F FOG
HENDERSON      LGT RAIN  53  46  77 NE18G25   29.95F
OWENSBORO      RAIN      52  46  80 E15       29.96F
HOPKINSVILLE   DRIZZLE   57  57 100 E24G33    29.79F
BOWLING GREEN  LGT RAIN  58  56  93 E16G28    29.93F
GLASGOW        LGT RAIN  55  53  92 E21G26    29.95F
$$

KYZ024-025-028>034-038-045-046-053-230800-
NORTH CENTRAL KENTUCKY

CITY           SKY/WX    TMP DP  RH WIND       PRES   REMARKS
LOUISVILLE/SDF CLOUDY    61  30  31 E8        30.01F
LOUISVILLE/LOU FAIR      60  32  34 E8        30.02F
FORT KNOX      LGT RAIN  55  43  65 E7        30.02R
$$

KYZ035>037-039>044-047>052-055>060-089>105-230800-
NORTHEAST KENTUCKY

CITY           SKY/WX    TMP DP  RH WIND       PRES   REMARKS
LEXINGTON      FAIR      60  32  34 E12       30.05F
COVINGTON      MOCLDY    56  30  37 E12       30.08F
FRANKFORT      FAIR      58  30  34 E9        30.03F
$$

KYZ054-064>069-076>088-106>120-230800-
SOUTHEAST KENTUCKY

CITY           SKY/WX    TMP DP  RH WIND       PRES   REMARKS
JACKSON        CLOUDY    60  42  51 S5        30.09F
LONDON         LGT RAIN  55  50  83 E6        30.05F
SOMERSET       RAIN      54  50  87 MISG      30.04F
MIDDLESBORO    LGT RAIN  56  49  74 CALM      30.08F
MONTICELLO     LGT RAIN  55  52  89 VRB3      30.04F
$$





USA.gov is the U.S. government's official web portal to all federal, state and local government web resources and services.